Weather History for Howell, MI

Change the Weather History Date:

Saturday, March 24, 2012

  Actual Average Record
Temperature  
Mean Temperature 54 °F -  
Max Temperature 56 °F 46 °F 69 °F (2003)
Min Temperature 52 °F 29 °F 11 °F (2014)
Degree Days  
Heating Degree Days 11    
Growing Degree Days 4 (Base 50)    
Moisture  
Dew Point 53 °F    
Average Humidity 95    
Maximum Humidity 97    
Minimum Humidity 88    
Precipitation  
Precipitation 0.00 in - - ()
Sea Level Pressure  
Sea Level Pressure 29.83 in    
Wind  
Wind Speed 4 mph (East)    
Max Wind Speed 9 mph    
Max Gust Speed -    
Visibility 4 miles    
Events Rain    
Averages and records for this station are not official NWS values.
T = Trace of Precipitation, MM = Missing Value Source: NWS Daily Summary

Daily Weather History Graph

Daily Weather History Graph

Search for Another Location

Airport:

Trip Planner

Search our weather history database for the weather conditions in past years. The results will help you decide how hot, cold, wet, or windy it might be!

Date:

Astronomy

Mar. 24, 2012 Rise Set
Actual Time 7:31 AM EDT 7:53 PM EDT
Civil Twilight 7:03 AM EDT 8:21 PM EDT
Nautical Twilight 6:29 AM EDT 8:54 PM EDT
Astronomical Twilight 5:55 AM EDT 9:29 PM EDT
Moon 8:06 AM EDT (3/24) 10:16 PM EDT (3/24)
Length of Visible Light 13h 18m
Length of Day
12h 22m
Waxing Crescent, 4% of the Moon is Illuminated
Mar 24
Waxing Crescent
Mar 30
First Quarter
Apr 6
Full
Apr 13
Last Quarter
Apr 21
New

Hourly Weather History & Observations

Time (EDT) Temp. Dew Point Humidity Pressure Visibility Wind Dir Wind Speed Gust Speed Precip Events Conditions
12:14 AM 55.2 °F 53.6 °F 94% 29.88 in 5.0 mi ESE 4.6 mph - N/A   Drizzle
12:34 AM 55.2 °F 53.6 °F 94% 29.88 in 7.0 mi Calm Calm - N/A   Overcast
12:55 AM 55.4 °F 53.6 °F 94% 29.87 in 7.0 mi ENE 4.6 mph - N/A   Overcast
1:14 AM 55.0 °F 53.6 °F 95% 29.86 in 5.0 mi ENE 5.8 mph - N/A   Overcast
1:34 AM 55.0 °F 53.6 °F 95% 29.85 in 5.0 mi NE 4.6 mph - N/A   Overcast
1:55 AM 55.0 °F 53.8 °F 96% 29.85 in 4.0 mi ENE 5.8 mph - N/A   Overcast
2:14 AM 55.4 °F 53.6 °F 94% 29.85 in 5.0 mi East 3.5 mph - N/A   Overcast
2:34 AM 55.6 °F 52.9 °F 91% 29.84 in 7.0 mi ENE 8.1 mph - N/A   Overcast
2:55 AM 54.5 °F 50.9 °F 88% 29.84 in 10.0 mi East 9.2 mph - N/A   Overcast
3:14 AM 54.0 °F 50.5 °F 88% 29.83 in 10.0 mi ESE 5.8 mph - N/A   Overcast
3:35 AM 53.8 °F 50.4 °F 88% 29.83 in 10.0 mi SE 5.8 mph - N/A   Overcast
3:55 AM 53.6 °F 50.5 °F 89% 29.83 in 10.0 mi ESE 6.9 mph - N/A   Overcast
4:14 AM 53.1 °F 50.9 °F 92% 29.83 in 7.0 mi SE 5.8 mph - N/A   Light Drizzle
4:35 AM 52.7 °F 50.9 °F 94% 29.82 in 7.0 mi SE 3.5 mph - N/A   Overcast
4:54 AM 52.7 °F 51.1 °F 94% 29.83 in 7.0 mi SE 4.6 mph - N/A   Overcast
5:14 AM 52.9 °F 51.4 °F 95% 29.83 in 5.0 mi ESE 4.6 mph - N/A Rain Light Rain
5:35 AM 52.9 °F 51.8 °F 96% 29.82 in 5.0 mi East 4.6 mph - N/A   Drizzle
5:54 AM 52.7 °F 51.3 °F 95% 29.82 in 7.0 mi East 5.8 mph - N/A   Overcast
6:14 AM 52.7 °F 51.3 °F 95% 29.81 in 5.0 mi East 5.8 mph - N/A   Overcast
6:35 AM 52.3 °F 51.1 °F 95% 29.81 in 5.0 mi ENE 6.9 mph - N/A   Overcast
6:54 AM 52.2 °F 50.9 °F 95% 29.81 in 7.0 mi East 8.1 mph - N/A   Overcast
7:14 AM 52.3 °F 50.9 °F 95% 29.81 in 7.0 mi ENE 6.9 mph - N/A   Overcast
7:35 AM 52.7 °F 51.1 °F 94% 29.81 in 7.0 mi ENE 9.2 mph - N/A   Overcast
7:54 AM 52.7 °F 51.1 °F 94% 29.82 in 7.0 mi East 5.8 mph - N/A   Overcast
8:15 AM 52.7 °F 51.1 °F 94% 29.82 in 5.0 mi East 4.6 mph - N/A   Overcast
8:35 AM 52.9 °F 51.3 °F 94% 29.82 in 4.0 mi East 8.1 mph - N/A   Overcast
8:54 AM 53.1 °F 51.8 °F 95% 29.81 in 3.0 mi ENE 4.6 mph - N/A   Overcast
9:15 AM 53.2 °F 51.8 °F 95% 29.82 in 3.0 mi ENE 6.9 mph - N/A   Overcast
9:34 AM 53.8 °F 52.3 °F 95% 29.83 in 3.0 mi East 4.6 mph - N/A   Overcast
9:54 AM 53.8 °F 52.3 °F 95% 29.83 in 3.0 mi East 4.6 mph - N/A   Overcast
10:14 AM 53.8 °F 52.3 °F 95% 29.83 in 1.5 mi East 3.5 mph - N/A   Overcast
10:34 AM 53.8 °F 52.7 °F 96% 29.83 in 1.2 mi East 3.5 mph - N/A   Overcast
10:55 AM 54.1 °F 53.1 °F 96% 29.84 in 1.0 mi East 3.5 mph - N/A   Overcast
11:14 AM 54.3 °F 53.4 °F 97% 29.83 in 1.2 mi East 4.6 mph - N/A   Overcast
11:34 AM 54.7 °F 53.8 °F 97% 29.83 in 1.8 mi ENE 4.6 mph - N/A   Overcast
11:55 AM 54.5 °F 53.6 °F 97% 29.84 in 1.8 mi SE 3.5 mph - N/A   Overcast
12:15 PM 54.7 °F 53.8 °F 97% 29.84 in 3.0 mi ESE 4.6 mph - N/A   Overcast
12:34 PM 55.0 °F 54.1 °F 97% 29.83 in 2.0 mi SE 4.6 mph - N/A   Overcast
12:55 PM 54.7 °F 53.8 °F 97% 29.83 in 3.0 mi ESE 4.6 mph - N/A   Overcast
1:14 PM 54.5 °F 53.6 °F 97% 29.83 in 2.5 mi Calm Calm - N/A   Overcast
1:35 PM 54.7 °F 53.8 °F 97% 29.83 in 1.8 mi East 3.5 mph - N/A   Overcast
1:55 PM 54.7 °F 53.8 °F 97% 29.83 in 1.5 mi Calm Calm - N/A   Overcast
2:14 PM 54.9 °F 54.1 °F 97% 29.83 in 1.2 mi Calm Calm - N/A   Overcast
2:35 PM 54.9 °F 54.1 °F 97% 29.82 in 1.8 mi Calm Calm - N/A   Overcast
2:55 PM 54.9 °F 54.0 °F 97% 29.83 in 1.5 mi Calm Calm - N/A   Overcast
3:14 PM 55.4 °F 54.5 °F 97% 29.83 in 1.2 mi Calm Calm - N/A   Overcast
3:35 PM 55.4 °F 54.5 °F 97% 29.83 in 1.5 mi Calm Calm - N/A   Overcast
3:54 PM 55.4 °F 54.5 °F 97% 29.83 in 1.8 mi Calm Calm - N/A   Overcast
4:14 PM 55.4 °F 54.5 °F 97% 29.83 in 1.8 mi Calm Calm - N/A   Overcast
4:35 PM 55.4 °F 54.5 °F 97% 29.83 in 1.5 mi Calm Calm - N/A   Overcast
4:54 PM 56.5 °F 55.4 °F 96% 29.83 in 1.8 mi Calm Calm - N/A   Overcast
5:14 PM 56.5 °F 55.2 °F 96% 29.84 in 1.8 mi Calm Calm - N/A   Overcast
5:35 PM 55.8 °F 54.5 °F 96% 29.84 in 1.8 mi Calm Calm - N/A   Overcast
5:54 PM 55.9 °F 54.7 °F 96% 29.84 in 2.0 mi Calm Calm - N/A   Overcast
6:15 PM 55.9 °F 54.7 °F 96% 29.85 in 2.0 mi Calm Calm - N/A   Overcast
6:35 PM 56.3 °F 55.0 °F 96% 29.85 in 1.2 mi Calm Calm - N/A   Overcast
6:54 PM 56.8 °F 55.0 °F 94% 29.85 in 2.0 mi Calm Calm - N/A   Overcast
7:15 PM 55.2 °F 53.6 °F 94% 29.85 in 0.8 mi NNW 3.5 mph - N/A   Light Drizzle
7:34 PM 54.5 °F 53.2 °F 96% 29.86 in 1.2 mi NNW 6.9 mph - N/A   Overcast
7:54 PM 53.6 °F 52.7 °F 97% 29.86 in 1.0 mi NNW 4.6 mph - N/A   Overcast
8:15 PM 52.9 °F 52.0 °F 97% 29.86 in 1.2 mi North 3.5 mph - N/A   Overcast
8:34 PM 52.5 °F 51.8 °F 97% 29.87 in 1.2 mi North 3.5 mph - N/A   Overcast
8:54 PM 52.2 °F 51.4 °F 97% 29.87 in 1.0 mi Calm Calm - N/A   Overcast
9:14 PM 52.2 °F 51.8 °F 99% 29.88 in 1.0 mi Calm Calm - N/A   Overcast
9:34 PM 52.7 °F 52.0 °F 97% 29.88 in 1.0 mi Calm Calm - N/A   Overcast
9:55 PM 52.5 °F 52.0 °F 98% 29.88 in 1.0 mi NNW 4.6 mph - N/A   Overcast
10:14 PM 52.0 °F 51.4 °F 98% 29.88 in 0.8 mi NNW 5.8 mph - N/A   Overcast
10:34 PM 51.3 °F 50.9 °F 99% 29.88 in 1.0 mi North 3.5 mph - N/A   Overcast
10:55 PM 51.3 °F 50.9 °F 99% 29.88 in 1.2 mi Calm Calm - N/A   Overcast
11:14 PM 51.1 °F 50.5 °F 98% 29.87 in 1.8 mi Calm Calm - N/A   Overcast
11:34 PM 51.3 °F 50.9 °F 99% 29.87 in 2.0 mi NNW 3.5 mph - N/A   Overcast
11:55 PM 51.1 °F 50.5 °F 98% 29.87 in 1.8 mi NNW 4.6 mph - N/A   Overcast